Retour au catalogue

STARLINK-3861

ActifCommunicationsVLEO
NORAD 52503·PAYLOAD·🇺🇸 United States

Lancé May 6, 2022 depuis Cape Canaveral Space Force Station

Loading…

Prochains Passages (prochaines 24 heures)

TLE

FraisSource: CelesTrak SupGP

Époque: Sep 14, 2026, 21:32 UTC

1 52503C 22049BE  26257.89770833  .00045023  00000+0  12884-2 0  2574
2 52503  53.1584 261.8325 0001149  91.4688  29.0906 15.35371439    19

Suivez STARLINK-3861 en temps réel avec AllMySat

Download on the App Store